loading
DOY 175 | 2024-06-23T10:38:42Z
Showing default

HAMMER, 59148

Orbit data source: Space-Track

HAMMER, 59148 is a payload satellite owned by Open Cosmos (ES) in LEO that was launched on Mon, 04 Mar 2024 UTC via a Falcon 9 launch vehicle from the Air Force Western Test Range (AFWTR). Payloads include a variety of satellites, spacecraft, and rockets equipped with specific instruments for various scientific and technological missions. These include communications satellites like Starlink; space stations such as the ISS; scientific satellites like the Hubble; Earth observation satellites from companies like Planet Labs, Umbra, and HawkEye 360; GPS; miniature CubeSats for education and research; and military/defense satellites.

Loading next visibility...
Loading greatness...
HAMMER details
NORAD ID59148
COSPAR ID
2024-043BC
Orbit
LEO
Last TLE update7 hours ago
Origin
Flag of ESOpen Cosmos (ES / SPN)
ManufacturerOpen Cosmos
BusCubesat 6U
MotorUnknown
Mass~10 kg wet, ~10 kg dry
Launch date (UTC)
2024-03-04 (4 months ago)
Launch vehicle
Falcon 9
Launch site
Air Force Western Test Range (AFWTR)
Object type
Payload
Rocket body
Debris
Radar Cross SectionMedium (>0.1 m² and <1 m²)
Predictive object data (real-time)
Latitude-18.69103°
Longitude153.35095°
Altitude503.47 km
Speed7.615 km/s
Apparent Right ascension08h 38m 46s
Apparent Declination-29° 32' 57"
Sunlit
Object is in daylight
Predictive observer data (real-time)
Local Sidereal Time21:46:36
Azimuth58.468° ENE
Elevation-72.681°
Doppler factor1
Orbital elements
Apogee506.319 km
Perigee491.902 km
Semi-major axis6,877.248 km
Eccentricity0.0010482
Inclination97.4792°
RAAN299.2699°
Arg. of periapsis233.5289°
True anomaly126.59468°
Mean anomaly126.4982°
Mean motion3.80558 °/min
BSTAR0.00028432
Period94.6 mins
Definitive object data (Epoch: 2024-06-23T03:27:32.984Z)
Latitude0.00002°
Longitude-24.41487°
Altitude509.529 km
Speed7.607 km/s
True Right ascension19h 57m 04s
True Declination0° 00' 00"
Sunlit
Object was in full shadow at TLE epoch
TLE from 7 hours ago
0 HAMMER
1 59148U 24043BC  24175.14413177  .00006285  00000-0  28432-3 0  9990
2 59148  97.4792 299.2699 0010482 233.5289 126.4982 15.21225401 16721
Epoch: 2024-06-23T03:27Z
No data available

HAMMER Visibility forecast

Observer location: 39.9160978°, -105.1181434, 0m alt.

HAMMER is not visible in the next 10 days
Span
Click to sort rows by Start time (UTC) header in descending order
Start Az.
Max El. time (UTC)
Max El. Az.
Max El.
End time (UTC)
End Az.